Tracking 21676 objects as of 29-Oct-2020
HD Live streaming from Space Station
objects crossing your sky now

COSMOS 1748

Track COSMOS 1748 now!
10-day predictions
COSMOS 1748 is classified as:


NORAD ID: 16758
Int'l Code: 1986-042A
Perigee: 1,459.9 km
Apogee: 1,477.1 km
Inclination: 74.0 °
Period: 115.1 minutes
Semi major axis: 7839 km
RCS: 0.6965 m2 (medium)
Launch date: June 6, 1986
Source: Commonwealth of Independent States (former USSR) (CIS)
Launch site: PLESETSK MISSILE AND SPACE COMPLEX (PKMTR)
aabbcc
Your satellite tracking list
Your tracking list is empty




NASA's NSSDC Master Catalog

Two Line Element Set (TLE):
1 16758U 86042A   20302.39263750 +.00000006 +00000-0 +14477-3 0  9991
2 16758 074.0162 154.3087 0011012 306.1250 227.9216 12.50748033570531
Source of the keplerian elements: AFSPC